Location: Vesunti
(61.5000°N, 22.8333°E)
Time: 19:47:04
(UTC+00:00)

CZ-4B DEB - Pass Details

Date: 17 February 2020
Orbit: 840 x 862 km, 99.1° (Epoch: 03 April)

Event Time Altitude Azimuth Distance (km) Brightness Sun altitude
Rises 04:50:03 0° 19° (NNE) 3,438 7.5 -9.8°
Reaches altitude 10° 04:52:27 10° 18° (NNE) 2,495 6.8 -9.5°
Maximum altitude 04:57:58 74° 295° (WNW) 887 4.2 -8.9°
Drops below altitude 10° 05:03:25 10° 211° (SSW) 2,466 6.4 -8.2°
Sets 05:05:46 0° 210° (SSW) 3,396 7.1 -8.0°
